Flag Weather past 2 weeks in Santarém, Para, Brazil

Now
86 °F

Scattered clouds.


Feels Like: 93 °F
Forecast: 72 / 95 °F
Wind: 13 mph from East

Location: Santarem-Aeroporto

Current Time: Nov 26, 2014 at 10:22:45 AM

Latest Report: Nov 26, 2014 at 10:00 AM


Visibility: N/A

Pressure: 29.83 "Hg

Humidity: 66%

Dew point: 73 °F

Location of SantarémLocation

Historic Weather in Santarém — Graph

°F

Santarém temperature yesterday

Maximum temperature yesterday: 91 °F (at 3:00 PM)
Minimum temperature yesterday: 73 °F (at 1:00 AM)
Average temperature yesterday: 82 °F

Past Weeks' High & Low Weather Summary

 TemperatureHumidityPressure
High93 °F (Nov 11, 2:00 PM)100% (Nov 18, 1:00 AM)29.95 "Hg (Nov 18, 1:00 AM)
Low73 °F (Nov 16, 3:00 AM)44% (Nov 11, 3:00 PM)29.68 "Hg (Nov 11, 5:00 PM)
Average82 °F78%29.80 "Hg
* Reported Nov 11 9:00 AM — Nov 26 9:00 AM, Santarém, Weather by CustomWeather, © 2014

Note: Actual official high and low records may vary slightly from our data, if they occured in-between our weather recording intervals... More about our weather records

Advertising

Santarém weather history for previous 24 hours

 ConditionsComfort  
Time TempWeatherWind HumidityBarometerVisibility
9:00 AM
Nov 26
84 °FPassing clouds.9 mph74%29.83 "HgN/A
8:00 AM82 °FSunny.7 mph79%29.83 "Hg10 mi
7:00 AM77 °FSunny.3 mph89%29.80 "Hg10 mi
6:00 AM77 °FClear.6 mph89%29.77 "Hg10 mi
5:00 AM73 °FClear.3 mph94%29.77 "Hg10 mi
4:00 AM73 °FClear.2 mph94%29.74 "Hg10 mi
3:00 AM73 °FClear.2 mph94%29.74 "Hg10 mi
2:00 AM73 °FClear.No wind94%29.77 "Hg10 mi
1:00 AM73 °FClear.No wind94%29.77 "Hg10 mi
12:00 AM75 °FClear.1 mph89%29.77 "Hg10 mi
11:00 PM
Nov 25
73 °FClear.No wind94%29.77 "Hg10 mi
10:00 PM77 °FClear.No wind83%29.77 "Hg10 mi
9:00 PM77 °FClear.No wind83%29.74 "Hg10 mi
8:00 PM77 °FClear.2 mph83%29.71 "Hg10 mi
7:00 PM84 °FClear.5 mph66%29.68 "Hg10 mi
6:00 PM90 °FSunny.6 mph49%29.71 "Hg10 mi
5:00 PM91 °FSunny.9 mph49%29.71 "Hg10 mi
4:00 PM91 °FPassing clouds.13 mph49%29.74 "HgN/A
3:00 PM91 °FPassing clouds.7 mph56%29.77 "HgN/A
2:00 PM90 °FPassing clouds.12 mph59%29.80 "HgN/A
1:00 PM90 °FPassing clouds.12 mph59%29.83 "HgN/A
12:00 PM90 °FSunny.17 mph55%29.86 "Hg10 mi
11:00 AM88 °FSunny.17 mph62%29.86 "Hg10 mi
10:00 AM86 °FPassing clouds.15 mph62%29.86 "HgN/A
Weather by CustomWeather, © 2014

See weather overviewHow to use our weather pages